Stations météo

Publicité
Pertusato, France (7770): Température de l'air & dewpoint: 02.04.2020 03:00:00 - 08.04.2020 03:00:00 (CEST)Pertusato, France (7770): Vitesse du vent & gusts: 02.04.2020 03:00:00 - 08.04.2020 03:00:00 (CEST)Pertusato, France (7770): Direction du vent: 02.04.2020 03:00:00 - 08.04.2020 03:00:00 (CEST)Pertusato, France (7770): reduced air pressure: 02.04.2020 03:00:00 - 08.04.2020 03:00:00 (CEST)Pertusato, France (7770): visibility: 02.04.2020 03:00:00 - 08.04.2020 03:00:00 (CEST)Pertusato, France (7770): Quantités de précipitations: 02.04.2020 03:00:00 - 08.04.2020 03:00:00 (CEST)
Date & Time tt [°C] td [°C] ff [km/h] ff [knt] fx [km/h] fx [knt] dd ppp [hPa] vv [km] rr [mm]
08.04.2020 03:00:00 - - - - - - - - - -
08.04.2020 02:00:00 11,3 6,2 4 2 14 8 NNE 1026,9 - 0,0
08.04.2020 01:00:00 12,3 10,2 13 7 16 9 E 1026,8 - 0,0
08.04.2020 00:00:00 12,6 2,7 4 2 5 3 ENE 1026,7 - 0,0
07.04.2020 23:00:00 12,7 3,4 2 1 8 5 SSW 1026,9 - 0,0
07.04.2020 22:00:00 13,1 6,4 4 2 6 4 SSW 1026,5 - 0,0
07.04.2020 21:00:00 12,2 6,5 6 4 16 9 ENE 1026,6 - 0,0
07.04.2020 20:00:00 13,3 7,9 14 8 18 10 ENE 1026,1 15 0,0
07.04.2020 19:00:00 16,2 8,4 13 7 23 12 ENE 1026,1 - 0,0
07.04.2020 18:00:00 17,9 7,6 13 7 25 13 ENE 1025,9 - 0,0
07.04.2020 17:00:00 20,1 7,5 16 9 28 15 ENE 1025,7 15 0,0
07.04.2020 16:00:00 20,8 5,2 19 10 35 19 ENE 1026,0 - 0,0
07.04.2020 15:00:00 21,2 5,1 19 10 36 19 NE 1026,4 - 0,0
07.04.2020 14:00:00 21,1 7,0 19 11 33 18 ENE 1026,7 24 0,0
07.04.2020 13:00:00 20,3 6,6 19 10 27 15 E 1026,9 - 0,0
07.04.2020 12:00:00 20,3 4,3 16 9 33 18 ENE 1027,0 - 0,0
07.04.2020 11:00:00 19,8 2,6 16 9 25 13 ENE 1027,0 24 0,0
07.04.2020 10:00:00 19,5 5,2 9 5 15 8 E 1026,7 - 0,0
07.04.2020 09:00:00 16,8 7,7 2 1 6 3 E 1026,6 - 0,0
07.04.2020 08:00:00 13,3 7,1 6 3 12 6 E 1026,4 14 0,0
07.04.2020 07:00:00 10,4 8,7 7 4 11 6 E 1026,4 - 0,0
07.04.2020 06:00:00 10,2 8,8 10 5 15 8 E 1025,9 - 0,0
07.04.2020 05:00:00 10,7 9,6 13 7 15 8 E 1025,7 14 0,0
07.04.2020 04:00:00 10,8 9,4 14 7 15 8 ENE 1025,7 - 0,0
07.04.2020 03:00:00 10,9 8,5 11 6 13 7 ENE 1026,0 - 0,0
07.04.2020 02:00:00 10,8 7,3 9 5 11 6 ENE 1026,4 - 0,0
07.04.2020 01:00:00 11,3 6,6 8 4 11 6 E 1026,5 - 0,0
07.04.2020 00:00:00 11,4 2,4 10 6 11 6 ENE 1026,3 - 0,0
06.04.2020 23:00:00 13,0 0,7 5 3 7 4 NE 1026,2 - 0,0
06.04.2020 22:00:00 11,9 4,4 4 2 8 4 N 1026,2 - 0,0
06.04.2020 21:00:00 12,1 4,6 4 2 11 6 N 1025,6 - 0,0
06.04.2020 20:00:00 12,6 6,4 11 6 13 7 E 1024,7 25 0,0
06.04.2020 19:00:00 16,0 5,9 10 5 22 12 ENE 1024,5 - 0,0
06.04.2020 18:00:00 17,9 5,8 14 8 28 15 NE 1024,4 - 0,0
06.04.2020 17:00:00 18,8 5,9 18 10 31 17 NE 1024,1 20 0,0
06.04.2020 16:00:00 19,4 4,7 20 11 32 17 ENE 1024,1 - 0,0
06.04.2020 15:00:00 19,7 4,6 19 10 32 17 ENE 1024,1 - 0,0
06.04.2020 14:00:00 20,4 5,2 16 9 29 16 ENE 1024,1 20 0,0
06.04.2020 13:00:00 20,1 3,7 16 9 28 15 ENE 1024,0 - 0,0
06.04.2020 12:00:00 19,4 8,1 12 6 25 14 NNE 1024,1 - 0,0
06.04.2020 11:00:00 17,5 4,1 11 6 21 12 NE 1024,1 - 0,0
06.04.2020 10:00:00 15,0 11,6 6 3 10 6 W 1023,6 - 0,0
06.04.2020 09:00:00 13,9 11,4 8 4 14 8 SW 1023,0 - 0,0
06.04.2020 08:00:00 12,7 11,1 8 5 13 7 SW 1022,5 23 0,0
06.04.2020 07:00:00 11,9 8,7 4 2 10 6 SSW 1022,1 - 0,0
06.04.2020 06:00:00 11,3 8,2 5 3 12 7 W 1021,9 - 0,0
06.04.2020 05:00:00 11,6 9,2 8 4 13 7 WSW 1021,5 18 0,0
06.04.2020 04:00:00 11,9 9,5 8 4 16 9 WSW 1021,5 - 0,0
06.04.2020 03:00:00 12,8 10,9 9 5 14 7 SW 1021,3 - 0,0
06.04.2020 02:00:00 12,3 8,2 7 4 13 7 SSW 1021,6 - 0,0
06.04.2020 01:00:00 12,7 2,0 4 2 12 7 ENE 1021,5 - 0,0
06.04.2020 00:00:00 12,1 4,1 6 3 11 6 W 1021,3 - 0,0
05.04.2020 23:00:00 12,2 5,6 8 4 14 8 W 1021,1 - 0,0
05.04.2020 22:00:00 12,4 5,8 10 5 16 9 WNW 1021,2 - 0,0
05.04.2020 21:00:00 12,5 7,4 8 5 19 11 NW 1020,7 - 0,0
05.04.2020 20:00:00 13,3 6,9 10 5 29 15 WNW 1020,1 25 0,0
05.04.2020 19:00:00 14,8 10,0 19 11 29 16 W 1019,6 - 0,0
05.04.2020 18:00:00 16,8 10,4 8 4 27 15 WNW 1019,9 - 0,0
05.04.2020 17:00:00 18,0 1,9 18 10 31 17 NNE 1019,7 25 0,0
05.04.2020 16:00:00 18,7 3,3 19 11 39 21 NE 1019,7 - 0,0
05.04.2020 15:00:00 18,5 2,7 26 14 51 28 NE 1020,0 - 0,0
05.04.2020 14:00:00 18,9 1,4 30 16 67 36 NE 1020,0 25 0,0
05.04.2020 13:00:00 17,8 1,7 34 18 58 31 NE 1020,3 - 0,0
05.04.2020 12:00:00 17,4 3,3 32 17 55 30 NE 1021,4 - 0,0
05.04.2020 11:00:00 17,9 4,5 22 12 51 28 NE 1021,0 25 0,0
05.04.2020 10:00:00 17,0 0,6 23 13 49 27 NE 1021,0 - 0,0
05.04.2020 09:00:00 15,6 0,6 26 14 47 26 NE 1021,1 - 0,0
05.04.2020 08:00:00 13,1 -0,6 12 6 27 14 NE 1021,2 - 0,0
05.04.2020 07:00:00 12,5 -1,1 21 11 43 23 NE 1020,6 - 0,0
05.04.2020 06:00:00 11,3 -1,2 21 11 35 19 NE 1020,3 - 0,0
05.04.2020 05:00:00 11,5 -1,0 16 9 25 14 NE 1020,2 20 0,0
05.04.2020 04:00:00 11,2 -0,9 16 8 22 12 NNE 1020,6 - 0,0
05.04.2020 03:00:00 11,4 -0,1 15 8 27 15 NNE 1020,9 - 0,0
05.04.2020 02:00:00 11,5 0,3 21 11 28 15 NE 1021,0 - 0,0
05.04.2020 01:00:00 11,8 2,0 8 4 21 11 ENE 1021,1 - 0,0
05.04.2020 00:00:00 11,8 -0,4 13 7 19 11 E 1020,8 - 0,0
04.04.2020 23:00:00 13,0 -1,0 5 3 11 6 NW 1020,5 - 0,0
04.04.2020 22:00:00 12,7 -0,2 7 4 20 11 WNW 1020,2 - 0,0
04.04.2020 21:00:00 13,9 0,2 11 6 31 17 WNW 1019,7 - 0,0
04.04.2020 20:00:00 14,3 0,2 16 8 25 13 WNW 1018,9 20 0,0
04.04.2020 19:00:00 15,3 6,3 13 7 29 16 W 1018,6 - 0,0
04.04.2020 18:00:00 16,2 6,9 16 9 33 18 WNW 1018,4 - 0,0
04.04.2020 17:00:00 17,2 8,6 11 6 33 18 W 1018,3 20 0,0
04.04.2020 16:00:00 19,6 2,0 19 11 45 24 NNE 1018,4 - 0,0
04.04.2020 15:00:00 19,3 0,3 29 16 52 28 NE 1018,2 - 0,0
04.04.2020 14:00:00 18,8 0,4 31 17 53 29 NE 1018,5 20 0,0
04.04.2020 13:00:00 18,2 0,3 34 18 58 32 NE 1018,5 - 0,0
04.04.2020 12:00:00 18,3 0,9 28 15 55 30 NE 1018,9 - 0,0
04.04.2020 11:00:00 17,9 1,4 22 12 38 21 NE 1018,8 16 0,0
04.04.2020 10:00:00 15,1 9,7 6 3 11 6 W 1018,4 - 0,0
04.04.2020 09:00:00 13,5 8,1 4 2 11 6 NW 1017,8 - 0,0
04.04.2020 08:00:00 10,9 7,6 5 3 10 5 W 1017,4 - 0,0
04.04.2020 07:00:00 9,6 7,4 6 4 10 6 SW 1016,8 - 0,0
04.04.2020 06:00:00 9,9 7,1 6 3 15 8 W 1016,0 - 0,0
04.04.2020 05:00:00 10,6 7,5 8 4 13 7 SSW 1015,8 - 0,0
04.04.2020 04:00:00 9,5 6,4 6 3 11 6 NE 1015,8 - 0,0
04.04.2020 03:00:00 9,7 3,9 5 3 12 6 NNE 1015,8 - 0,0
04.04.2020 02:00:00 10,2 4,8 6 4 18 10 WNW 1015,7 - 0,0
04.04.2020 01:00:00 9,9 6,4 10 5 16 9 W 1015,6 - 0,0
04.04.2020 00:00:00 10,8 7,3 9 5 15 8 W 1015,2 - 0,0
03.04.2020 23:00:00 10,7 7,2 10 6 15 8 W 1014,9 - 0,0
03.04.2020 22:00:00 11,4 8,4 7 4 15 8 W 1014,3 - 0,0
03.04.2020 21:00:00 10,5 7,4 4 2 8 4 ENE 1014,1 - 0,0
03.04.2020 20:00:00 11,1 6,8 6 3 8 4 NE 1013,5 - 0,0
03.04.2020 19:00:00 13,3 8,1 6 3 22 12 ENE 1012,8 - 0,0
03.04.2020 18:00:00 15,1 8,1 9 5 21 11 ENE 1012,5 - 0,0
03.04.2020 17:00:00 14,0 7,7 15 8 25 13 ENE 1012,4 20 0,0
03.04.2020 16:00:00 14,7 8,4 14 7 29 16 E 1012,4 - 0,0
03.04.2020 15:00:00 13,9 8,5 17 9 28 15 ENE 1012,6 - 0,0
03.04.2020 14:00:00 14,1 8,7 16 9 30 16 NE 1013,0 20 0,0
03.04.2020 13:00:00 14,8 8,7 19 10 28 15 E 1013,0 - 0,0
03.04.2020 12:00:00 15,0 8,7 15 8 29 15 ENE 1012,5 - 0,0
03.04.2020 11:00:00 13,2 9,1 18 10 28 15 NE 1012,5 14 0,0
03.04.2020 10:00:00 12,1 8,9 17 9 27 15 NE 1012,4 - 0,0
03.04.2020 09:00:00 10,6 9,0 13 7 20 11 NE 1012,1 - 0,0
03.04.2020 08:00:00 9,7 8,3 14 7 20 11 NE 1012,0 19 0,0
03.04.2020 07:00:00 9,7 7,6 13 7 21 12 NNE 1011,5 - 0,2
03.04.2020 06:00:00 9,5 6,8 15 8 21 11 NNE 1011,1 - 0,0
03.04.2020 05:00:00 9,2 6,5 14 8 21 11 NE 1011,1 - 0,0
03.04.2020 04:00:00 9,0 6,8 15 8 21 11 NE 1011,2 - 0,0
03.04.2020 03:00:00 8,8 6,8 14 8 19 10 NE 1011,6 - 0,2
03.04.2020 02:00:00 9,5 6,6 14 8 21 11 NE 1011,9 - 0,0
03.04.2020 01:00:00 9,8 5,8 13 7 17 9 NE 1012,2 - 0,0
03.04.2020 00:00:00 10,4 6,5 8 4 18 10 ENE 1012,5 - 0,0
02.04.2020 23:00:00 10,3 6,4 11 6 19 10 ENE 1012,7 - 0,0
02.04.2020 22:00:00 9,6 5,4 12 7 18 10 E 1012,5 - 0,0
02.04.2020 21:00:00 10,4 5,0 11 6 19 11 ENE 1012,4 - 0,0
02.04.2020 20:00:00 10,7 5,0 11 6 22 12 ENE 1012,2 16 0,0
02.04.2020 19:00:00 11,8 5,2 15 8 27 15 E 1012,0 - 0,0
02.04.2020 18:00:00 11,9 4,4 19 10 37 20 E 1011,9 - 0,0
02.04.2020 17:00:00 13,7 5,1 19 10 37 20 E 1012,1 26 0,0
02.04.2020 16:00:00 15,1 5,0 21 11 31 17 E 1012,4 - 0,0
02.04.2020 15:00:00 14,1 4,4 19 10 37 20 ENE 1013,1 - 0,0
02.04.2020 14:00:00 15,1 4,5 19 11 35 19 ENE 1013,3 18 0,0
02.04.2020 13:00:00 14,2 4,5 17 9 35 19 E 1013,7 - 0,0
02.04.2020 12:00:00 12,8 2,6 21 12 36 19 E 1013,7 - 0,0
02.04.2020 11:00:00 11,5 4,5 21 11 37 20 ENE 1013,7 14 0,0
02.04.2020 10:00:00 10,4 4,1 21 11 38 20 ENE 1014,1 - 0,0
02.04.2020 09:00:00 10,0 2,3 20 11 32 17 ENE 1013,8 - 0,0
02.04.2020 08:00:00 8,9 1,1 18 10 32 18 ENE 1013,7 20 0,0
02.04.2020 07:00:00 8,5 0,7 19 10 27 15 NE 1013,8 - 0,0
02.04.2020 06:00:00 8,1 1,0 14 8 24 13 NE 1014,2 - 0,0
02.04.2020 05:00:00 7,2 1,5 14 7 23 12 ENE 1014,3 - 0,0
02.04.2020 04:00:00 6,7 0,8 13 7 21 11 NE 1014,9 - 0,0
02.04.2020 03:00:00 7,6 0,1 13 7 22 12 E 1015,5 - 0,0

tt = Température de l'air
td = dewpoint
ff = Vitesse du vent
fx = gusts
dd = Direction du vent
ppp = reduced air pressure
vv = visibility
rr = Quantités de précipitations

stations d'obs. à proximité